Location: Newark
(27.9675°N, 86.8869°E)
Time: 16:09:04
(UTC+00:00)

deb Explorer IX - Visible Passes

Search period start: 19 October 2019 00:00
Search period end: 29 October 2019 00:00
Orbit: 544 x 1107 km, 38.8° (Epoch: 18 October)

Date Brightness Start Highest point End Pass type
(mag) Time Alt. Az. Time Alt. Az. Time Alt. Az.
19 Oct ? 12:03:16 10° NW 12:09:56 54° NNE 12:17:05 10° E visible
19 Oct ? 13:50:36 10° WNW 13:57:36 59° SW 13:58:39 54° S visible
20 Oct ? 13:28:39 10° WNW 13:35:34 57° SW 13:38:30 36° SSE visible
20 Oct ? 15:18:50 10° WSW 15:19:56 12° WSW 15:19:56 12° WSW visible
21 Oct ? 13:06:44 10° WNW 13:13:31 56° SW 13:18:32 20° SE visible
21 Oct ? 14:56:59 10° WSW 14:59:58 14° SW 14:59:58 14° SW visible
22 Oct ? 12:44:50 10° WNW 12:51:29 54° SW 12:58:36 10° SE visible
22 Oct ? 14:35:11 10° WSW 14:38:25 13° SW 14:40:14 12° SSW visible
23 Oct ? 12:22:57 10° WNW 12:29:27 53° SW 12:36:30 10° SE visible
23 Oct ? 14:13:26 10° WSW 14:16:24 13° SW 14:19:26 10° SSW visible
24 Oct ? 12:01:05 10° WNW 12:07:26 51° SW 12:14:24 10° SE visible
24 Oct ? 13:51:44 10° WSW 13:54:24 12° SW 13:57:06 10° SSW visible
25 Oct ? 13:30:08 10° WSW 13:32:23 12° SW 13:34:41 10° SSW visible
26 Oct ? 13:08:40 10° WSW 13:10:24 11° SW 13:12:08 10° SSW visible
27 Oct ? 12:47:37 10° SW 12:48:25 10° SW 12:49:12 10° SW visible
